Time,TemperatureF,DewpointF,PressureIn,WindDirection,WindDirectionDegrees,WindSpeedMPH,WindSpeedGustMPH,Humidity,HourlyPrecipIn,Conditions,Clouds,dailyrainin,SoftwareType,DateUTC
2013-10-21 00:00:00,51.9,43.5,29.91,WSW,245,0.0,0.0,73,0.00,,---,0.00,VWS V14.01,2013-10-21 07:00:00,
2013-10-21 00:01:00,51.9,43.5,29.91,WSW,245,0.0,0.0,73,0.00,,---,0.00,VWS V14.01,2013-10-21 07:01:00,
2013-10-21 00:06:00,51.8,43.4,29.91,WSW,245,0.0,0.0,73,0.00,,---,0.00,VWS V14.01,2013-10-21 07:06:00,
2013-10-21 00:10:00,51.6,43.2,29.91,WSW,245,0.0,0.0,73,0.00,,---,0.00,VWS V14.01,2013-10-21 07:10:00,
2013-10-21 00:11:00,51.7,43.3,29.91,WSW,245,0.0,0.0,73,0.00,,---,0.00,VWS V14.01,2013-10-21 07:11:00,
2013-10-21 00:16:00,51.5,43.5,29.91,WSW,245,0.0,0.0,74,0.00,,---,0.00,VWS V14.01,2013-10-21 07:16:00,
2013-10-21 00:20:00,51.5,43.5,29.91,WSW,245,0.0,0.0,74,0.00,,---,0.00,VWS V14.01,2013-10-21 07:20:00,
2013-10-21 00:21:00,51.5,43.5,29.91,WSW,245,0.0,0.0,74,0.00,,---,0.00,VWS V14.01,2013-10-21 07:21:00,
2013-10-21 00:26:00,51.4,43.4,29.91,WSW,245,0.0,0.0,74,0.00,,---,0.00,VWS V14.01,2013-10-21 07:26:00,
2013-10-21 00:30:00,51.3,43.3,29.91,WSW,245,0.0,0.0,74,0.00,,---,0.00,VWS V14.01,2013-10-21 07:30:00,
2013-10-21 00:31:00,51.3,43.3,29.91,WSW,245,0.0,0.0,74,0.00,,---,0.00,VWS V14.01,2013-10-21 07:31:00,
2013-10-21 00:36:00,51.2,43.2,29.91,WSW,245,0.0,0.0,74,0.00,,---,0.00,VWS V14.01,2013-10-21 07:36:00,
2013-10-21 00:40:00,51.0,43.0,29.91,WSW,245,0.0,0.0,74,0.00,,---,0.00,VWS V14.01,2013-10-21 07:40:00,
2013-10-21 00:41:00,51.0,43.0,29.91,WSW,245,0.0,0.0,74,0.00,,---,0.00,VWS V14.01,2013-10-21 07:41:00,
2013-10-21 00:46:00,50.8,43.2,29.91,WSW,245,0.0,0.0,75,0.00,,---,0.00,VWS V14.01,2013-10-21 07:46:00,
2013-10-21 00:50:00,50.6,43.0,29.91,WSW,245,0.0,0.0,75,0.00,,---,0.00,VWS V14.01,2013-10-21 07:50:00,
2013-10-21 00:51:00,50.6,43.0,29.91,WSW,245,0.0,0.0,75,0.00,,---,0.00,VWS V14.01,2013-10-21 07:51:00,
2013-10-21 00:56:00,50.5,43.2,29.91,WSW,245,0.0,0.0,76,0.00,,---,0.00,VWS V14.01,2013-10-21 07:56:00,
2013-10-21 01:00:00,50.3,42.7,29.91,WSW,245,0.0,0.0,75,0.00,,---,0.00,VWS V14.01,2013-10-21 08:00:00,
2013-10-21 01:01:00,50.3,42.7,29.91,WSW,245,0.0,0.0,75,0.00,,---,0.00,VWS V14.01,2013-10-21 08:01:00,
2013-10-21 01:06:00,50.1,42.5,29.91,WSW,245,0.0,0.0,75,0.00,,---,0.00,VWS V14.01,2013-10-21 08:06:00,
2013-10-21 01:10:00,50.0,42.4,29.91,WSW,245,0.0,0.0,75,0.00,,---,0.00,VWS V14.01,2013-10-21 08:10:00,
2013-10-21 01:11:00,50.0,42.4,29.91,WSW,245,0.0,0.0,75,0.00,,---,0.00,VWS V14.01,2013-10-21 08:11:00,
2013-10-21 01:16:00,50.0,42.4,29.91,WSW,245,0.0,0.0,75,0.00,,---,0.00,VWS V14.01,2013-10-21 08:16:00,
2013-10-21 01:20:00,49.9,42.3,29.91,WSW,245,0.0,0.0,75,0.00,,---,0.00,VWS V14.01,2013-10-21 08:20:00,
2013-10-21 01:21:00,49.8,42.2,29.91,WSW,245,0.0,0.0,75,0.00,,---,0.00,VWS V14.01,2013-10-21 08:21:00,
2013-10-21 01:26:00,49.8,42.5,29.91,WSW,245,0.0,0.0,76,0.00,,---,0.00,VWS V14.01,2013-10-21 08:26:00,
2013-10-21 01:30:00,49.8,42.5,29.91,WSW,245,0.0,0.0,76,0.00,,---,0.00,VWS V14.01,2013-10-21 08:30:00,
2013-10-21 01:31:00,49.8,42.5,29.91,WSW,245,0.0,0.0,76,0.00,,---,0.00,VWS V14.01,2013-10-21 08:31:00,
2013-10-21 01:36:00,49.8,42.5,29.91,WSW,245,0.0,0.0,76,0.00,,---,0.00,VWS V14.01,2013-10-21 08:36:00,
2013-10-21 01:40:00,49.8,42.5,29.91,WSW,245,0.0,0.0,76,0.00,,---,0.00,VWS V14.01,2013-10-21 08:40:00,
2013-10-21 01:41:00,49.8,42.5,29.91,WSW,245,0.0,0.0,76,0.00,,---,0.00,VWS V14.01,2013-10-21 08:41:00,
2013-10-21 01:46:00,49.9,42.7,29.91,WSW,245,0.0,0.0,76,0.00,,---,0.00,VWS V14.01,2013-10-21 08:46:00,
2013-10-21 01:50:00,50.0,43.1,29.91,WSW,245,0.0,0.0,77,0.00,,---,0.00,VWS V14.01,2013-10-21 08:50:00,
2013-10-21 01:51:00,49.9,42.7,29.91,WSW,245,0.0,0.0,76,0.00,,---,0.00,VWS V14.01,2013-10-21 08:51:00,
2013-10-21 01:56:00,50.1,42.8,29.92,WSW,245,0.0,0.0,76,0.00,,---,0.00,VWS V14.01,2013-10-21 08:56:00,
2013-10-21 02:00:00,50.2,42.9,29.92,WSW,245,0.0,0.0,76,0.00,,---,0.00,VWS V14.01,2013-10-21 09:00:00,
2013-10-21 02:01:00,50.2,42.9,29.92,WSW,245,0.0,0.0,76,0.00,,---,0.00,VWS V14.01,2013-10-21 09:01:00,
2013-10-21 02:06:00,50.2,42.9,29.92,WSW,245,0.0,0.0,76,0.00,,---,0.00,VWS V14.01,2013-10-21 09:06:00,
2013-10-21 02:10:00,50.1,42.8,29.92,WSW,245,0.0,0.0,76,0.00,,---,0.00,VWS V14.01,2013-10-21 09:10:00,
2013-10-21 02:11:00,50.1,42.8,29.92,WSW,245,0.0,0.0,76,0.00,,---,0.00,VWS V14.01,2013-10-21 09:11:00,
2013-10-21 02:16:00,50.0,42.7,29.92,WSW,245,0.0,0.0,76,0.00,,---,0.00,VWS V14.01,2013-10-21 09:16:00,
2013-10-21 02:20:00,49.8,42.9,29.92,WSW,245,0.0,0.0,77,0.00,,---,0.00,VWS V14.01,2013-10-21 09:20:00,
2013-10-21 02:21:00,49.8,42.9,29.92,WSW,245,0.0,0.0,77,0.00,,---,0.00,VWS V14.01,2013-10-21 09:21:00,
2013-10-21 02:26:00,49.7,42.8,29.92,WSW,245,0.0,0.0,77,0.00,,---,0.00,VWS V14.01,2013-10-21 09:26:00,
2013-10-21 02:30:00,49.7,43.1,29.92,WSW,245,0.0,0.0,78,0.00,,---,0.00,VWS V14.01,2013-10-21 09:30:00,
2013-10-21 02:31:00,49.7,43.1,29.92,WSW,245,0.0,0.0,78,0.00,,---,0.00,VWS V14.01,2013-10-21 09:31:00,
2013-10-21 02:36:00,49.7,43.1,29.92,WSW,245,0.0,0.0,78,0.00,,---,0.00,VWS V14.01,2013-10-21 09:36:00,
2013-10-21 02:40:00,49.7,42.8,29.92,WSW,245,0.0,0.0,77,0.00,,---,0.00,VWS V14.01,2013-10-21 09:40:00,
2013-10-21 02:41:00,49.7,42.8,29.92,WSW,245,0.0,0.0,77,0.00,,---,0.00,VWS V14.01,2013-10-21 09:41:00,
2013-10-21 02:46:00,49.7,43.1,29.92,WSW,245,0.0,0.0,78,0.00,,---,0.00,VWS V14.01,2013-10-21 09:46:00,
2013-10-21 02:50:00,49.9,43.7,29.92,WSW,245,0.0,0.0,79,0.00,,---,0.00,VWS V14.01,2013-10-21 09:50:00,
2013-10-21 02:51:00,49.8,43.6,29.92,WSW,245,0.0,0.0,79,0.00,,---,0.00,VWS V14.01,2013-10-21 09:51:00,
2013-10-21 02:56:00,50.1,44.2,29.92,WSW,245,0.0,0.0,80,0.00,,---,0.00,VWS V14.01,2013-10-21 09:56:00,
2013-10-21 03:00:00,50.4,44.8,29.92,WSW,245,0.0,0.0,81,0.00,,---,0.00,VWS V14.01,2013-10-21 10:00:00,
2013-10-21 03:01:00,50.4,44.5,29.92,WSW,245,0.0,0.0,80,0.00,,---,0.00,VWS V14.01,2013-10-21 10:01:00,
2013-10-21 03:06:00,50.7,45.1,29.92,WSW,245,0.0,0.0,81,0.00,,---,0.00,VWS V14.01,2013-10-21 10:06:00,
2013-10-21 03:10:00,50.9,45.0,29.92,WSW,245,0.0,0.0,80,0.00,,---,0.00,VWS V14.01,2013-10-21 10:10:00,
2013-10-21 03:11:00,50.9,45.0,29.92,WSW,245,0.0,0.0,80,0.00,,---,0.00,VWS V14.01,2013-10-21 10:11:00,
2013-10-21 03:16:00,51.0,45.1,29.92,WSW,245,0.0,0.0,80,0.00,,---,0.00,VWS V14.01,2013-10-21 10:16:00,
2013-10-21 03:20:00,51.0,45.1,29.92,WSW,245,0.0,0.0,80,0.00,,---,0.00,VWS V14.01,2013-10-21 10:20:00,
2013-10-21 03:21:00,51.0,45.1,29.92,WSW,245,0.0,0.0,80,0.00,,---,0.00,VWS V14.01,2013-10-21 10:21:00,
2013-10-21 03:26:00,50.9,45.0,29.92,WSW,245,0.0,0.0,80,0.00,,---,0.00,VWS V14.01,2013-10-21 10:26:00,
2013-10-21 03:30:00,50.7,44.8,29.92,WSW,245,0.0,0.0,80,0.00,,---,0.00,VWS V14.01,2013-10-21 10:30:00,
2013-10-21 03:31:00,50.7,44.8,29.92,WSW,245,0.0,0.0,80,0.00,,---,0.00,VWS V14.01,2013-10-21 10:31:00,
2013-10-21 03:36:00,50.6,44.7,29.91,WSW,245,0.0,0.0,80,0.00,,---,0.00,VWS V14.01,2013-10-21 10:36:00,
2013-10-21 03:40:00,50.3,44.7,29.92,WSW,245,0.0,0.0,81,0.00,,---,0.00,VWS V14.01,2013-10-21 10:40:00,
2013-10-21 03:41:00,50.3,44.7,29.92,WSW,245,0.0,0.0,81,0.00,,---,0.00,VWS V14.01,2013-10-21 10:41:00,
2013-10-21 03:46:00,50.1,44.5,29.92,WSW,245,0.0,0.0,81,0.00,,---,0.00,VWS V14.01,2013-10-21 10:46:00,
2013-10-21 03:50:00,49.9,44.3,29.92,WSW,245,0.0,0.0,81,0.00,,---,0.00,VWS V14.01,2013-10-21 10:50:00,
2013-10-21 03:51:00,49.9,44.3,29.92,WSW,245,0.0,0.0,81,0.00,,---,0.00,VWS V14.01,2013-10-21 10:51:00,
2013-10-21 03:56:00,49.7,44.1,29.92,WSW,245,0.0,0.0,81,0.00,,---,0.00,VWS V14.01,2013-10-21 10:56:00,
2013-10-21 04:00:00,49.5,44.2,29.92,WSW,245,0.0,0.0,82,0.00,,---,0.00,VWS V14.01,2013-10-21 11:00:00,
2013-10-21 04:01:00,49.5,44.2,29.92,WSW,245,0.0,0.0,82,0.00,,---,0.00,VWS V14.01,2013-10-21 11:01:00,
2013-10-21 04:06:00,49.2,44.0,29.92,WSW,245,0.0,0.0,82,0.00,,---,0.00,VWS V14.01,2013-10-21 11:06:00,
2013-10-21 04:10:00,49.0,43.8,29.92,WSW,245,0.0,0.0,82,0.00,,---,0.00,VWS V14.01,2013-10-21 11:10:00,
2013-10-21 04:11:00,49.0,43.8,29.92,WSW,245,0.0,0.0,82,0.00,,---,0.00,VWS V14.01,2013-10-21 11:11:00,
2013-10-21 04:16:00,48.8,43.9,29.92,WSW,245,0.0,0.0,83,0.00,,---,0.00,VWS V14.01,2013-10-21 11:16:00,
2013-10-21 04:20:00,48.7,43.8,29.92,WSW,245,0.0,0.0,83,0.00,,---,0.00,VWS V14.01,2013-10-21 11:20:00,
2013-10-21 04:21:00,48.7,43.8,29.92,WSW,245,0.0,0.0,83,0.00,,---,0.00,VWS V14.01,2013-10-21 11:21:00,
2013-10-21 04:26:00,48.7,43.8,29.92,WSW,245,0.0,0.0,83,0.00,,---,0.00,VWS V14.01,2013-10-21 11:26:00,
2013-10-21 04:30:00,48.7,43.8,29.92,WSW,245,0.0,0.0,83,0.00,,---,0.00,VWS V14.01,2013-10-21 11:30:00,
2013-10-21 04:31:00,48.7,43.8,29.92,WSW,245,0.0,0.0,83,0.00,,---,0.00,VWS V14.01,2013-10-21 11:31:00,
2013-10-21 04:35:00,48.7,43.5,29.92,WSW,245,0.0,0.0,82,0.00,,---,0.00,VWS V14.01,2013-10-21 11:35:00,
2013-10-21 04:40:00,48.4,43.5,29.92,WSW,245,0.0,0.0,83,0.00,,---,0.00,VWS V14.01,2013-10-21 11:40:00,
2013-10-21 04:45:00,48.2,43.3,29.92,WSW,245,0.0,0.0,83,0.00,,---,0.00,VWS V14.01,2013-10-21 11:45:00,
2013-10-21 04:50:00,48.0,43.4,29.92,WSW,245,0.0,0.0,84,0.00,,---,0.00,VWS V14.01,2013-10-21 11:50:00,
2013-10-21 04:55:00,47.7,43.4,29.93,WSW,245,0.0,0.0,85,0.00,,---,0.00,VWS V14.01,2013-10-21 11:55:00,
2013-10-21 05:00:00,47.6,43.3,29.92,WSW,245,0.0,0.0,85,0.00,,---,0.00,VWS V14.01,2013-10-21 12:00:00,
2013-10-21 05:05:00,47.6,43.3,29.92,WSW,245,0.0,0.0,85,0.00,,---,0.00,VWS V14.01,2013-10-21 12:05:00,
2013-10-21 05:10:00,47.5,43.5,29.92,WSW,245,0.0,0.0,86,0.00,,---,0.00,VWS V14.01,2013-10-21 12:10:00,
2013-10-21 05:15:00,47.5,43.2,29.93,WSW,245,0.0,0.0,85,0.00,,---,0.00,VWS V14.01,2013-10-21 12:15:00,
2013-10-21 05:20:00,47.5,43.2,29.93,WSW,245,0.0,0.0,85,0.00,,---,0.00,VWS V14.01,2013-10-21 12:20:00,
2013-10-21 05:25:00,47.3,43.0,29.93,WSW,245,0.0,0.0,85,0.00,,---,0.00,VWS V14.01,2013-10-21 12:25:00,
2013-10-21 05:30:00,47.1,43.1,29.93,WSW,245,0.0,0.0,86,0.00,,---,0.00,VWS V14.01,2013-10-21 12:30:00,
2013-10-21 05:35:00,47.0,43.0,29.93,WSW,245,0.0,0.0,86,0.00,,---,0.00,VWS V14.01,2013-10-21 12:35:00,
2013-10-21 05:40:00,46.8,42.8,29.94,WSW,245,0.0,0.0,86,0.00,,---,0.00,VWS V14.01,2013-10-21 12:40:00,
2013-10-21 05:45:00,46.7,43.0,29.94,WSW,245,0.0,0.0,87,0.00,,---,0.00,VWS V14.01,2013-10-21 12:45:00,
2013-10-21 05:50:00,46.6,42.9,29.93,WSW,245,0.0,0.0,87,0.00,,---,0.00,VWS V14.01,2013-10-21 12:50:00,
2013-10-21 05:55:00,46.5,42.8,29.93,WSW,245,0.0,0.0,87,0.00,,---,0.00,VWS V14.01,2013-10-21 12:55:00,
2013-10-21 06:00:00,46.5,42.8,29.93,WSW,245,0.0,0.0,87,0.00,,---,0.00,VWS V14.01,2013-10-21 13:00:00,
2013-10-21 06:05:00,46.4,42.8,29.93,WSW,245,0.0,0.0,87,0.00,,---,0.00,VWS V14.01,2013-10-21 13:05:00,
2013-10-21 06:10:00,46.4,43.0,29.94,WSW,245,0.0,0.0,88,0.00,,---,0.00,VWS V14.01,2013-10-21 13:10:00,
2013-10-21 06:15:00,46.3,43.0,29.94,WSW,245,0.0,0.0,88,0.00,,---,0.00,VWS V14.01,2013-10-21 13:15:00,
2013-10-21 06:20:00,46.2,42.8,29.94,WSW,245,0.0,0.0,88,0.00,,---,0.00,VWS V14.01,2013-10-21 13:20:00,
2013-10-21 06:25:00,46.2,42.8,29.94,WSW,245,0.0,0.0,88,0.00,,---,0.00,VWS V14.01,2013-10-21 13:25:00,
2013-10-21 06:30:00,46.1,42.8,29.94,WSW,245,0.0,0.0,88,0.00,,---,0.00,VWS V14.01,2013-10-21 13:30:00,
2013-10-21 06:35:00,46.0,42.7,29.94,WSW,245,0.0,0.0,88,0.00,,---,0.00,VWS V14.01,2013-10-21 13:35:00,
2013-10-21 06:40:00,45.9,42.5,29.94,WSW,245,0.0,0.0,88,0.00,,---,0.00,VWS V14.01,2013-10-21 13:40:00,
2013-10-21 06:45:00,45.8,42.5,29.94,WSW,245,0.0,0.0,88,0.00,,---,0.00,VWS V14.01,2013-10-21 13:45:00,
2013-10-21 06:50:00,45.7,42.4,29.94,WSW,245,0.0,0.0,88,0.00,,---,0.00,VWS V14.01,2013-10-21 13:50:00,
2013-10-21 06:55:00,45.6,42.3,29.94,WSW,245,0.0,0.0,88,0.00,,---,0.00,VWS V14.01,2013-10-21 13:55:00,
2013-10-21 07:00:00,45.4,42.1,29.94,WSW,245,0.0,0.0,88,0.00,,---,0.00,VWS V14.01,2013-10-21 14:00:00,
2013-10-21 07:05:00,45.4,42.1,29.94,WSW,245,0.0,0.0,88,0.00,,---,0.00,VWS V14.01,2013-10-21 14:05:00,
2013-10-21 07:10:00,45.2,42.2,29.94,WSW,245,0.0,0.0,89,0.00,,---,0.00,VWS V14.01,2013-10-21 14:10:00,
2013-10-21 07:15:00,45.2,42.2,29.94,WSW,245,0.0,0.0,89,0.00,,---,0.00,VWS V14.01,2013-10-21 14:15:00,
2013-10-21 07:20:00,45.0,42.0,29.94,WSW,245,0.0,0.0,89,0.00,,---,0.00,VWS V14.01,2013-10-21 14:20:00,
2013-10-21 07:25:00,45.0,42.0,29.94,WSW,245,0.0,0.0,89,0.00,,---,0.00,VWS V14.01,2013-10-21 14:25:00,
2013-10-21 07:30:00,45.0,42.0,29.95,WSW,245,0.0,0.0,89,0.00,,---,0.00,VWS V14.01,2013-10-21 14:30:00,
2013-10-21 07:35:00,44.9,41.9,29.95,WSW,245,0.0,0.0,89,0.00,,---,0.00,VWS V14.01,2013-10-21 14:35:00,
2013-10-21 07:40:00,44.8,41.8,29.95,WSW,245,0.0,0.0,89,0.00,,---,0.00,VWS V14.01,2013-10-21 14:40:00,
2013-10-21 07:45:00,44.8,42.0,29.95,WSW,245,0.0,0.0,90,0.00,,---,0.00,VWS V14.01,2013-10-21 14:45:00,
2013-10-21 07:50:00,44.9,42.2,29.95,WSW,245,0.0,0.0,90,0.00,,---,0.00,VWS V14.01,2013-10-21 14:50:00,
2013-10-21 07:55:00,45.0,42.2,29.95,WSW,245,0.0,0.0,90,0.00,,---,0.00,VWS V14.01,2013-10-21 14:55:00,
2013-10-21 08:00:00,45.4,42.6,29.96,WSW,245,0.0,0.0,90,0.00,,---,0.00,VWS V14.01,2013-10-21 15:00:00,
2013-10-21 08:05:00,45.9,43.4,29.96,WSW,245,0.0,0.0,91,0.00,,---,0.00,VWS V14.01,2013-10-21 15:05:00,
2013-10-21 08:10:00,46.4,43.6,29.96,WSW,245,0.0,0.0,90,0.00,,---,0.00,VWS V14.01,2013-10-21 15:10:00,
2013-10-21 08:15:00,47.0,44.5,29.97,WSW,245,0.0,0.0,91,0.00,,---,0.00,VWS V14.01,2013-10-21 15:15:00,
2013-10-21 08:20:00,47.7,45.2,29.96,WSW,245,0.0,0.0,91,0.00,,---,0.00,VWS V14.01,2013-10-21 15:20:00,
2013-10-21 08:25:00,48.6,46.1,29.96,SSE,153,0.0,1.0,91,0.00,,---,0.00,VWS V14.01,2013-10-21 15:25:00,
2013-10-21 08:30:00,49.2,46.4,29.97,SE,130,0.0,1.0,90,0.00,,---,0.00,VWS V14.01,2013-10-21 15:30:00,
2013-10-21 08:35:00,49.8,46.4,29.97,East,93,0.0,2.0,88,0.00,,---,0.00,VWS V14.01,2013-10-21 15:35:00,
2013-10-21 08:40:00,50.4,46.7,29.97,East,90,0.0,2.0,87,0.00,,---,0.00,VWS V14.01,2013-10-21 15:40:00,
2013-10-21 08:45:00,51.0,47.0,29.97,East,90,0.0,1.0,86,0.00,,---,0.00,VWS V14.01,2013-10-21 15:45:00,
2013-10-21 08:50:00,51.8,47.4,29.97,East,90,0.0,1.0,85,0.00,,---,0.00,VWS V14.01,2013-10-21 15:50:00,
2013-10-21 08:55:00,52.7,48.3,29.98,East,90,0.0,0.0,85,0.00,,---,0.00,VWS V14.01,2013-10-21 15:55:00,
2013-10-21 09:00:00,53.5,48.5,29.97,East,90,0.0,0.0,83,0.00,,---,0.00,VWS V14.01,2013-10-21 16:00:00,
2013-10-21 09:05:00,54.3,48.9,29.97,ESE,109,3.0,3.0,82,0.00,,---,0.00,VWS V14.01,2013-10-21 16:05:00,
2013-10-21 09:10:00,54.9,48.5,29.98,ENE,57,2.0,5.0,79,0.00,,---,0.00,VWS V14.01,2013-10-21 16:10:00,
2013-10-21 09:15:00,55.1,48.4,29.98,ENE,78,2.0,4.0,78,0.00,,---,0.00,VWS V14.01,2013-10-21 16:15:00,
2013-10-21 09:20:00,55.1,48.4,29.98,East,82,3.0,4.0,78,0.00,,---,0.00,VWS V14.01,2013-10-21 16:20:00,
2013-10-21 09:25:00,55.5,48.4,29.98,East,99,3.0,4.0,77,0.00,,---,0.00,VWS V14.01,2013-10-21 16:25:00,
2013-10-21 09:30:00,55.8,48.7,29.98,East,99,4.0,4.0,77,0.00,,---,0.00,VWS V14.01,2013-10-21 16:30:00,
2013-10-21 09:35:00,56.1,48.7,29.98,ESE,105,1.0,5.0,76,0.00,,---,0.00,VWS V14.01,2013-10-21 16:35:00,
2013-10-21 09:40:00,56.5,48.7,29.98,SE,125,4.0,5.0,75,0.00,,---,0.00,VWS V14.01,2013-10-21 16:40:00,
2013-10-21 09:45:00,56.8,49.0,29.98,East,97,4.0,4.0,75,0.00,,---,0.00,VWS V14.01,2013-10-21 16:45:00,
2013-10-21 09:50:00,56.9,49.1,29.98,ENE,57,0.0,4.0,75,0.00,,---,0.00,VWS V14.01,2013-10-21 16:50:00,
2013-10-21 09:55:00,57.3,49.8,29.98,East,80,1.0,3.0,76,0.00,,---,0.00,VWS V14.01,2013-10-21 16:55:00,
2013-10-21 10:00:00,57.8,49.2,29.98,ENE,78,1.0,3.0,73,0.00,,---,0.00,VWS V14.01,2013-10-21 17:00:00,
2013-10-21 10:05:00,58.3,49.7,29.98,East,93,3.0,4.0,73,0.00,,---,0.00,VWS V14.01,2013-10-21 17:05:00,
2013-10-21 10:10:00,59.0,49.6,29.98,SE,137,1.0,4.0,71,0.00,,---,0.00,VWS V14.01,2013-10-21 17:10:00,
2013-10-21 10:15:00,59.3,49.9,29.98,East,90,3.0,3.0,71,0.00,,---,0.00,VWS V14.01,2013-10-21 17:15:00,
2013-10-21 10:20:00,60.0,49.8,29.98,ESE,117,1.0,3.0,69,0.00,,---,0.00,VWS V14.01,2013-10-21 17:20:00,
2013-10-21 10:25:00,60.7,50.1,29.97,East,84,0.0,4.0,68,0.00,,---,0.00,VWS V14.01,2013-10-21 17:25:00,
2013-10-21 10:30:00,61.4,50.4,29.97,East,92,0.0,4.0,67,0.00,,---,0.00,VWS V14.01,2013-10-21 17:30:00,
2013-10-21 10:35:00,62.1,49.8,29.97,East,93,2.0,3.0,64,0.00,,---,0.00,VWS V14.01,2013-10-21 17:35:00,
2013-10-21 10:40:00,62.6,50.3,29.98,East,98,1.0,3.0,64,0.00,,---,0.00,VWS V14.01,2013-10-21 17:40:00,
2013-10-21 10:45:00,63.0,50.2,29.97,ESE,105,0.0,2.0,63,0.00,,---,0.00,VWS V14.01,2013-10-21 17:45:00,
2013-10-21 10:50:00,63.4,50.2,29.97,ESE,107,0.0,3.0,62,0.00,,---,0.00,VWS V14.01,2013-10-21 17:50:00,
2013-10-21 10:55:00,63.9,49.8,29.97,ENE,76,0.0,2.0,60,0.00,,---,0.00,VWS V14.01,2013-10-21 17:55:00,
2013-10-21 11:00:00,64.3,49.7,29.97,ENE,61,1.0,2.0,59,0.00,,---,0.00,VWS V14.01,2013-10-21 18:00:00,
2013-10-21 11:05:00,64.5,49.9,29.97,ENE,61,0.0,2.0,59,0.00,,---,0.00,VWS V14.01,2013-10-21 18:05:00,
2013-10-21 11:10:00,64.6,50.0,29.97,ENE,61,0.0,2.0,59,0.00,,---,0.00,VWS V14.01,2013-10-21 18:10:00,
2013-10-21 11:15:00,65.0,50.3,29.96,ENE,60,0.0,1.0,59,0.00,,---,0.00,VWS V14.01,2013-10-21 18:15:00,
2013-10-21 11:20:00,65.4,50.7,29.97,ENE,60,0.0,1.0,59,0.00,,---,0.00,VWS V14.01,2013-10-21 18:20:00,
2013-10-21 11:25:00,66.3,50.6,29.97,ENE,73,0.0,2.0,57,0.00,,---,0.00,VWS V14.01,2013-10-21 18:25:00,
2013-10-21 11:30:00,67.1,50.4,29.96,NNW,329,0.0,3.0,55,0.00,,---,0.00,VWS V14.01,2013-10-21 18:30:00,
2013-10-21 11:35:00,67.4,50.7,29.96,NNW,344,1.0,1.0,55,0.00,,---,0.00,VWS V14.01,2013-10-21 18:35:00,
2013-10-21 11:40:00,67.8,50.6,29.96,NE,50,1.0,2.0,54,0.00,,---,0.00,VWS V14.01,2013-10-21 18:40:00,
2013-10-21 11:45:00,68.4,50.6,29.96,NNE,24,0.0,2.0,53,0.00,,---,0.00,VWS V14.01,2013-10-21 18:45:00,
2013-10-21 11:50:00,69.2,50.8,29.96,NE,41,0.0,3.0,52,0.00,,---,0.00,VWS V14.01,2013-10-21 18:50:00,
2013-10-21 11:55:00,69.7,50.8,29.95,NE,50,0.0,3.0,51,0.00,,---,0.00,VWS V14.01,2013-10-21 18:55:00,
2013-10-21 12:00:00,70.1,49.5,29.95,NNE,25,0.0,3.0,48,0.00,,---,0.00,VWS V14.01,2013-10-21 19:00:00,
2013-10-21 12:05:00,70.4,49.2,29.95,NNE,31,0.0,1.0,47,0.00,,---,0.00,VWS V14.01,2013-10-21 19:05:00,
2013-10-21 12:10:00,70.6,47.0,29.95,NE,46,0.0,1.0,43,0.00,,---,0.00,VWS V14.01,2013-10-21 19:10:00,
2013-10-21 12:15:00,70.9,49.1,29.95,North,355,0.0,2.0,46,0.00,,---,0.00,VWS V14.01,2013-10-21 19:15:00,
2013-10-21 12:20:00,71.3,50.0,29.94,NNW,347,0.0,3.0,47,0.00,,---,0.00,VWS V14.01,2013-10-21 19:20:00,
2013-10-21 12:25:00,71.6,50.3,29.94,NNW,342,0.0,0.0,47,0.00,,---,0.00,VWS V14.01,2013-10-21 19:25:00,
2013-10-21 12:30:00,72.2,49.7,29.94,NW,304,0.0,2.0,45,0.00,,---,0.00,VWS V14.01,2013-10-21 19:30:00,
2013-10-21 12:35:00,72.6,50.1,29.94,East,92,0.0,2.0,45,0.00,,---,0.00,VWS V14.01,2013-10-21 19:35:00,
2013-10-21 12:40:00,72.9,49.1,29.94,East,82,0.0,2.0,43,0.00,,---,0.00,VWS V14.01,2013-10-21 19:40:00,
2013-10-21 12:45:00,73.1,48.7,29.94,WSW,240,0.0,2.0,42,0.00,,---,0.00,VWS V14.01,2013-10-21 19:45:00,
2013-10-21 12:50:00,73.2,49.4,29.93,NW,325,3.0,3.0,43,0.00,,---,0.00,VWS V14.01,2013-10-21 19:50:00,
2013-10-21 12:55:00,73.5,49.7,29.93,NNE,29,0.0,3.0,43,0.00,,---,0.00,VWS V14.01,2013-10-21 19:55:00,
2013-10-21 13:00:00,73.9,50.0,29.93,West,270,1.0,3.0,43,0.00,,---,0.00,VWS V14.01,2013-10-21 20:00:00,
2013-10-21 13:05:00,74.2,49.7,29.93,West,275,0.0,1.0,42,0.00,,---,0.00,VWS V14.01,2013-10-21 20:05:00,
2013-10-21 13:10:00,74.4,49.8,29.92,NNW,338,0.0,1.0,42,0.00,,---,0.00,VWS V14.01,2013-10-21 20:10:00,
2013-10-21 13:15:00,74.5,49.3,29.92,North,351,0.0,3.0,41,0.00,,---,0.00,VWS V14.01,2013-10-21 20:15:00,
2013-10-21 13:20:00,74.8,48.9,29.92,West,265,0.0,3.0,40,0.00,,---,0.00,VWS V14.01,2013-10-21 20:20:00,
2013-10-21 13:25:00,74.9,49.0,29.91,NE,52,1.0,2.0,40,0.00,,---,0.00,VWS V14.01,2013-10-21 20:25:00,
2013-10-21 13:30:00,75.3,48.0,29.91,WNW,301,0.0,6.0,38,0.00,,---,0.00,VWS V14.01,2013-10-21 20:30:00,
2013-10-21 13:35:00,75.3,48.7,29.91,NNE,28,1.0,5.0,39,0.00,,---,0.00,VWS V14.01,2013-10-21 20:35:00,
2013-10-21 13:40:00,75.6,48.2,29.91,WNW,283,1.0,5.0,38,0.00,,---,0.00,VWS V14.01,2013-10-21 20:40:00,
2013-10-21 13:45:00,75.9,48.5,29.91,NW,311,0.0,5.0,38,0.00,,---,0.00,VWS V14.01,2013-10-21 20:45:00,
2013-10-21 13:50:00,75.8,48.4,29.91,WNW,302,5.0,5.0,38,0.00,,---,0.00,VWS V14.01,2013-10-21 20:50:00,
2013-10-21 13:55:00,75.8,49.1,29.90,NNE,15,2.0,3.0,39,0.00,,---,0.00,VWS V14.01,2013-10-21 20:55:00,
2013-10-21 14:00:00,76.0,48.6,29.90,NNW,345,0.0,6.0,38,0.00,,---,0.00,VWS V14.01,2013-10-21 21:00:00,
2013-10-21 14:05:00,76.0,48.6,29.90,NNW,345,3.0,5.0,38,0.00,,---,0.00,VWS V14.01,2013-10-21 21:05:00,
2013-10-21 14:10:00,75.9,48.5,29.90,WSW,257,0.0,5.0,38,0.00,,---,0.00,VWS V14.01,2013-10-21 21:10:00,
2013-10-21 14:15:00,75.9,47.8,29.90,West,277,0.0,2.0,37,0.00,,---,0.00,VWS V14.01,2013-10-21 21:15:00,
2013-10-21 14:20:00,76.0,47.9,29.90,NNW,331,0.0,4.0,37,0.00,,---,0.00,VWS V14.01,2013-10-21 21:20:00,
2013-10-21 14:25:00,76.1,47.2,29.90,West,280,0.0,6.0,36,0.00,,---,0.00,VWS V14.01,2013-10-21 21:25:00,
2013-10-21 14:30:00,76.0,47.2,29.89,NNW,332,0.0,6.0,36,0.00,,---,0.00,VWS V14.01,2013-10-21 21:30:00,
2013-10-21 14:35:00,75.9,46.3,29.89,NW,321,3.0,5.0,35,0.00,,---,0.00,VWS V14.01,2013-10-21 21:35:00,
2013-10-21 14:40:00,76.0,47.2,29.89,West,279,0.0,5.0,36,0.00,,---,0.00,VWS V14.01,2013-10-21 21:40:00,
2013-10-21 14:45:00,76.0,47.9,29.89,West,274,1.0,3.0,37,0.00,,---,0.00,VWS V14.01,2013-10-21 21:45:00,
2013-10-21 14:50:00,76.1,47.2,29.89,West,269,1.0,4.0,36,0.00,,---,0.00,VWS V14.01,2013-10-21 21:50:00,
2013-10-21 14:55:00,76.2,47.3,29.89,NNW,334,0.0,2.0,36,0.00,,---,0.00,VWS V14.01,2013-10-21 21:55:00,
2013-10-21 15:00:00,76.3,46.7,29.89,NW,304,1.0,5.0,35,0.00,,---,0.00,VWS V14.01,2013-10-21 22:00:00,
2013-10-21 15:05:00,76.5,46.8,29.89,NNW,327,0.0,6.0,35,0.00,,---,0.00,VWS V14.01,2013-10-21 22:05:00,
2013-10-21 15:10:00,76.5,46.8,29.89,NW,304,1.0,6.0,35,0.00,,---,0.00,VWS V14.01,2013-10-21 22:10:00,
2013-10-21 15:15:00,76.6,47.7,29.89,NW,321,1.0,3.0,36,0.00,,---,0.00,VWS V14.01,2013-10-21 22:15:00,
2013-10-21 15:20:00,76.7,47.0,29.88,NW,315,3.0,3.0,35,0.00,,---,0.00,VWS V14.01,2013-10-21 22:20:00,
2013-10-21 15:25:00,76.8,47.8,29.89,NW,319,2.0,3.0,36,0.00,,---,0.00,VWS V14.01,2013-10-21 22:25:00,
2013-10-21 15:30:00,76.8,47.8,29.89,West,263,0.0,5.0,36,0.00,,---,0.00,VWS V14.01,2013-10-21 22:30:00,
2013-10-21 15:35:00,76.8,47.8,29.89,North,9,2.0,5.0,36,0.00,,---,0.00,VWS V14.01,2013-10-21 22:35:00,
2013-10-21 15:40:00,76.8,47.8,29.88,West,278,0.0,5.0,36,0.00,,---,0.00,VWS V14.01,2013-10-21 22:40:00,
2013-10-21 15:45:00,76.8,48.6,29.88,NW,304,0.0,1.0,37,0.00,,---,0.00,VWS V14.01,2013-10-21 22:45:00,
2013-10-21 15:50:00,76.8,47.8,29.88,NNW,335,0.0,1.0,36,0.00,,---,0.00,VWS V14.01,2013-10-21 22:50:00,
2013-10-21 15:55:00,76.8,47.8,29.88,West,275,0.0,2.0,36,0.00,,---,0.00,VWS V14.01,2013-10-21 22:55:00,
2013-10-21 16:00:00,76.8,47.8,29.88,WNW,300,1.0,2.0,36,0.00,,---,0.00,VWS V14.01,2013-10-21 23:00:00,
2013-10-21 16:05:00,76.8,47.8,29.88,WNW,302,0.0,2.0,36,0.00,,---,0.00,VWS V14.01,2013-10-21 23:05:00,
2013-10-21 16:10:00,76.8,47.8,29.88,NW,310,0.0,4.0,36,0.00,,---,0.00,VWS V14.01,2013-10-21 23:10:00,
2013-10-21 16:15:00,76.8,47.8,29.88,West,279,0.0,4.0,36,0.00,,---,0.00,VWS V14.01,2013-10-21 23:15:00,
2013-10-21 16:20:00,76.7,48.5,29.88,WNW,296,0.0,4.0,37,0.00,,---,0.00,VWS V14.01,2013-10-21 23:20:00,
2013-10-21 16:25:00,76.6,48.4,29.88,West,274,0.0,4.0,37,0.00,,---,0.00,VWS V14.01,2013-10-21 23:25:00,
2013-10-21 16:30:00,76.5,48.3,29.88,WSW,242,0.0,4.0,37,0.00,,---,0.00,VWS V14.01,2013-10-21 23:30:00,
2013-10-21 16:35:00,76.4,48.2,29.88,West,268,0.0,3.0,37,0.00,,---,0.00,VWS V14.01,2013-10-21 23:35:00,
2013-10-21 16:40:00,76.3,48.8,29.88,West,267,0.0,3.0,38,0.00,,---,0.00,VWS V14.01,2013-10-21 23:40:00,
2013-10-21 16:45:00,76.2,48.8,29.88,WSW,256,0.0,1.0,38,0.00,,---,0.00,VWS V14.01,2013-10-21 23:45:00,
2013-10-21 16:50:00,76.1,49.4,29.88,WSW,256,0.0,2.0,39,0.00,,---,0.00,VWS V14.01,2013-10-21 23:50:00,
2013-10-21 16:55:00,75.9,48.5,29.88,West,268,0.0,1.0,38,0.00,,---,0.00,VWS V14.01,2013-10-21 23:55:00,
2013-10-21 17:00:00,75.7,49.7,29.88,West,268,0.0,1.0,40,0.00,,---,0.00,VWS V14.01,2013-10-22 00:00:00,
2013-10-21 17:05:00,75.4,49.4,29.88,West,268,0.0,0.0,40,0.00,,---,0.00,VWS V14.01,2013-10-22 00:05:00,
2013-10-21 17:10:00,75.0,49.1,29.88,West,268,0.0,0.0,40,0.00,,---,0.00,VWS V14.01,2013-10-22 00:10:00,
2013-10-21 17:15:00,74.4,49.8,29.88,West,268,1.0,1.0,42,0.00,,---,0.00,VWS V14.01,2013-10-22 00:15:00,
2013-10-21 17:20:00,73.6,49.8,29.88,West,268,0.0,1.0,43,0.00,,---,0.00,VWS V14.01,2013-10-22 00:20:00,
2013-10-21 17:25:00,72.8,49.6,29.88,West,268,0.0,1.0,44,0.00,,---,0.00,VWS V14.01,2013-10-22 00:25:00,
2013-10-21 17:30:00,71.9,49.4,29.88,West,268,0.0,1.0,45,0.00,,---,0.00,VWS V14.01,2013-10-22 00:30:00,
2013-10-21 17:35:00,71.3,49.5,29.88,West,268,0.0,0.0,46,0.00,,---,0.00,VWS V14.01,2013-10-22 00:35:00,
2013-10-21 17:40:00,70.6,49.4,29.88,West,268,0.0,0.0,47,0.00,,---,0.00,VWS V14.01,2013-10-22 00:40:00,
2013-10-21 17:45:00,70.1,49.5,29.88,West,268,0.0,0.0,48,0.00,,---,0.00,VWS V14.01,2013-10-22 00:45:00,
2013-10-21 17:50:00,69.5,49.0,29.88,West,268,0.0,0.0,48,0.00,,---,0.00,VWS V14.01,2013-10-22 00:50:00,
2013-10-21 17:55:00,68.9,49.0,29.88,West,268,0.0,0.0,49,0.00,,---,0.00,VWS V14.01,2013-10-22 00:55:00,
2013-10-21 18:00:00,68.5,49.2,29.88,West,268,0.0,0.0,50,0.00,,---,0.00,VWS V14.01,2013-10-22 01:00:00,
2013-10-21 18:05:00,68.0,48.7,29.88,West,268,0.0,0.0,50,0.00,,---,0.00,VWS V14.01,2013-10-22 01:05:00,
2013-10-21 18:10:00,67.7,48.9,29.88,West,268,0.0,0.0,51,0.00,,---,0.00,VWS V14.01,2013-10-22 01:10:00,
2013-10-21 18:15:00,67.2,48.5,29.88,West,268,0.0,0.0,51,0.00,,---,0.00,VWS V14.01,2013-10-22 01:15:00,
2013-10-21 18:20:00,66.7,48.5,29.88,West,268,0.0,0.0,52,0.00,,---,0.00,VWS V14.01,2013-10-22 01:20:00,
2013-10-21 18:24:00,66.3,48.2,29.89,West,268,0.0,0.0,52,0.00,,---,0.00,VWS V14.01,2013-10-22 01:24:00,
2013-10-21 18:29:00,65.9,48.3,29.89,West,268,0.0,0.0,53,0.00,,---,0.00,VWS V14.01,2013-10-22 01:29:00,
2013-10-21 18:30:00,65.8,48.2,29.89,West,268,0.0,0.0,53,0.00,,---,0.00,VWS V14.01,2013-10-22 01:30:00,
2013-10-21 18:34:00,65.5,48.4,29.89,West,268,0.0,0.0,54,0.00,,---,0.00,VWS V14.01,2013-10-22 01:34:00,
2013-10-21 18:39:00,65.0,48.0,29.89,West,268,0.0,0.0,54,0.00,,---,0.00,VWS V14.01,2013-10-22 01:39:00,
2013-10-21 18:40:00,64.8,48.3,29.89,West,268,0.0,0.0,55,0.00,,---,0.00,VWS V14.01,2013-10-22 01:40:00,
2013-10-21 18:44:00,64.5,48.0,29.89,West,268,0.0,0.0,55,0.00,,---,0.00,VWS V14.01,2013-10-22 01:44:00,
2013-10-21 18:49:00,64.1,48.1,29.89,West,268,0.0,0.0,56,0.00,,---,0.00,VWS V14.01,2013-10-22 01:49:00,
2013-10-21 18:50:00,64.0,48.0,29.89,West,268,0.0,0.0,56,0.00,,---,0.00,VWS V14.01,2013-10-22 01:50:00,
2013-10-21 18:54:00,63.7,48.2,29.89,West,268,0.0,0.0,57,0.00,,---,0.00,VWS V14.01,2013-10-22 01:54:00,
2013-10-21 18:59:00,63.3,47.8,29.89,West,268,0.0,0.0,57,0.00,,---,0.00,VWS V14.01,2013-10-22 01:59:00,
2013-10-21 19:00:00,63.2,48.2,29.89,West,268,0.0,0.0,58,0.00,,---,0.00,VWS V14.01,2013-10-22 02:00:00,
2013-10-21 19:04:00,62.9,47.9,29.90,West,268,0.0,0.0,58,0.00,,---,0.00,VWS V14.01,2013-10-22 02:04:00,
2013-10-21 19:09:00,62.6,47.6,29.90,West,268,0.0,0.0,58,0.00,,---,0.00,VWS V14.01,2013-10-22 02:09:00,
2013-10-21 19:10:00,62.5,47.5,29.90,West,268,0.0,0.0,58,0.00,,---,0.00,VWS V14.01,2013-10-22 02:10:00,
2013-10-21 19:14:00,62.4,47.9,29.90,West,268,0.0,0.0,59,0.00,,---,0.00,VWS V14.01,2013-10-22 02:14:00,
2013-10-21 19:19:00,62.2,47.7,29.90,West,268,0.0,0.0,59,0.00,,---,0.00,VWS V14.01,2013-10-22 02:19:00,
2013-10-21 19:20:00,62.1,47.6,29.90,West,268,0.0,0.0,59,0.00,,---,0.00,VWS V14.01,2013-10-22 02:20:00,
2013-10-21 19:24:00,62.0,47.5,29.90,West,268,0.0,0.0,59,0.00,,---,0.00,VWS V14.01,2013-10-22 02:24:00,
2013-10-21 19:29:00,61.7,47.7,29.90,West,268,0.0,0.0,60,0.00,,---,0.00,VWS V14.01,2013-10-22 02:29:00,
2013-10-21 19:30:00,61.6,47.6,29.90,West,268,0.0,0.0,60,0.00,,---,0.00,VWS V14.01,2013-10-22 02:30:00,
2013-10-21 19:34:00,61.4,47.4,29.90,West,268,0.0,0.0,60,0.00,,---,0.00,VWS V14.01,2013-10-22 02:34:00,
2013-10-21 19:39:00,61.1,47.6,29.90,West,268,0.0,0.0,61,0.00,,---,0.00,VWS V14.01,2013-10-22 02:39:00,
2013-10-21 19:40:00,61.0,47.5,29.90,West,268,0.0,0.0,61,0.00,,---,0.00,VWS V14.01,2013-10-22 02:40:00,
2013-10-21 19:44:00,60.9,47.8,29.90,West,268,0.0,0.0,62,0.00,,---,0.00,VWS V14.01,2013-10-22 02:44:00,
2013-10-21 19:49:00,60.5,47.4,29.91,West,268,0.0,0.0,62,0.00,,---,0.00,VWS V14.01,2013-10-22 02:49:00,
2013-10-21 19:50:00,60.4,47.8,29.91,West,268,0.0,0.0,63,0.00,,---,0.00,VWS V14.01,2013-10-22 02:50:00,
2013-10-21 19:54:00,60.3,47.7,29.91,West,268,0.0,0.0,63,0.00,,---,0.00,VWS V14.01,2013-10-22 02:54:00,
2013-10-21 19:59:00,60.1,47.9,29.91,West,268,0.0,0.0,64,0.00,,---,0.00,VWS V14.01,2013-10-22 02:59:00,
2013-10-21 20:00:00,60.0,47.8,29.91,West,268,0.0,0.0,64,0.00,,---,0.00,VWS V14.01,2013-10-22 03:00:00,
2013-10-21 20:04:00,59.8,47.6,29.91,West,268,0.0,0.0,64,0.00,,---,0.00,VWS V14.01,2013-10-22 03:04:00,
2013-10-21 20:09:00,59.6,47.8,29.91,West,268,0.0,0.0,65,0.00,,---,0.00,VWS V14.01,2013-10-22 03:09:00,
2013-10-21 20:10:00,59.5,47.7,29.91,West,268,0.0,0.0,65,0.00,,---,0.00,VWS V14.01,2013-10-22 03:10:00,
2013-10-21 20:14:00,59.4,47.7,29.91,West,268,0.0,0.0,65,0.00,,---,0.00,VWS V14.01,2013-10-22 03:14:00,
2013-10-21 20:19:00,59.1,47.4,29.91,West,268,0.0,0.0,65,0.00,,---,0.00,VWS V14.01,2013-10-22 03:19:00,
2013-10-21 20:20:00,59.0,47.3,29.92,West,268,0.0,0.0,65,0.00,,---,0.00,VWS V14.01,2013-10-22 03:20:00,
2013-10-21 20:24:00,59.0,47.7,29.92,West,268,0.0,0.0,66,0.00,,---,0.00,VWS V14.01,2013-10-22 03:24:00,
2013-10-21 20:29:00,59.0,48.1,29.91,West,268,0.0,0.0,67,0.00,,---,0.00,VWS V14.01,2013-10-22 03:29:00,
2013-10-21 20:30:00,58.9,48.0,29.92,West,268,0.0,0.0,67,0.00,,---,0.00,VWS V14.01,2013-10-22 03:30:00,
2013-10-21 20:34:00,58.7,47.8,29.92,West,268,0.0,0.0,67,0.00,,---,0.00,VWS V14.01,2013-10-22 03:34:00,
2013-10-21 20:39:00,58.5,48.0,29.92,West,268,0.0,0.0,68,0.00,,---,0.00,VWS V14.01,2013-10-22 03:39:00,
2013-10-21 20:40:00,58.4,47.9,29.92,West,268,0.0,0.0,68,0.00,,---,0.00,VWS V14.01,2013-10-22 03:40:00,
2013-10-21 20:44:00,58.2,47.7,29.92,West,268,0.0,0.0,68,0.00,,---,0.00,VWS V14.01,2013-10-22 03:44:00,
2013-10-21 20:49:00,58.0,47.9,29.92,West,268,0.0,0.0,69,0.00,,---,0.00,VWS V14.01,2013-10-22 03:49:00,
2013-10-21 20:50:00,57.9,47.8,29.92,West,268,0.0,0.0,69,0.00,,---,0.00,VWS V14.01,2013-10-22 03:50:00,
2013-10-21 20:54:00,57.8,47.7,29.92,West,268,0.0,0.0,69,0.00,,---,0.00,VWS V14.01,2013-10-22 03:54:00,
2013-10-21 20:59:00,57.6,47.9,29.92,West,268,0.0,0.0,70,0.00,,---,0.00,VWS V14.01,2013-10-22 03:59:00,
2013-10-21 21:00:00,57.5,47.8,29.92,West,268,0.0,0.0,70,0.00,,---,0.00,VWS V14.01,2013-10-22 04:00:00,
2013-10-21 21:01:00,57.5,47.8,29.92,West,268,0.0,0.0,70,0.00,,---,0.00,VWS V14.01,2013-10-22 04:01:00,
2013-10-21 21:06:00,57.4,47.7,29.92,West,268,0.0,0.0,70,0.00,,---,0.00,VWS V14.01,2013-10-22 04:06:00,
2013-10-21 21:10:00,57.2,47.5,29.93,West,268,0.0,0.0,70,0.00,,---,0.00,VWS V14.01,2013-10-22 04:10:00,
2013-10-21 21:11:00,57.2,47.5,29.92,West,268,0.0,0.0,70,0.00,,---,0.00,VWS V14.01,2013-10-22 04:11:00,
2013-10-21 21:16:00,57.0,47.7,29.93,West,268,0.0,0.0,71,0.00,,---,0.00,VWS V14.01,2013-10-22 04:16:00,
2013-10-21 21:20:00,56.8,47.5,29.93,West,268,0.0,0.0,71,0.00,,---,0.00,VWS V14.01,2013-10-22 04:20:00,
2013-10-21 21:21:00,56.8,47.5,29.93,West,268,0.0,0.0,71,0.00,,---,0.00,VWS V14.01,2013-10-22 04:21:00,
2013-10-21 21:26:00,56.6,47.7,29.93,West,268,0.0,0.0,72,0.00,,---,0.00,VWS V14.01,2013-10-22 04:26:00,
2013-10-21 21:30:00,56.4,47.5,29.93,West,268,0.0,0.0,72,0.00,,---,0.00,VWS V14.01,2013-10-22 04:30:00,
2013-10-21 21:31:00,56.4,47.5,29.93,West,268,0.0,0.0,72,0.00,,---,0.00,VWS V14.01,2013-10-22 04:31:00,
2013-10-21 21:36:00,56.2,47.3,29.93,West,268,0.0,0.0,72,0.00,,---,0.00,VWS V14.01,2013-10-22 04:36:00,
2013-10-21 21:40:00,56.0,47.5,29.94,West,268,0.0,0.0,73,0.00,,---,0.00,VWS V14.01,2013-10-22 04:40:00,
2013-10-21 21:41:00,56.0,47.5,29.94,West,268,0.0,0.0,73,0.00,,---,0.00,VWS V14.01,2013-10-22 04:41:00,
2013-10-21 21:46:00,55.8,47.3,29.93,West,268,0.0,0.0,73,0.00,,---,0.00,VWS V14.01,2013-10-22 04:46:00,
2013-10-21 21:50:00,55.5,47.4,29.94,West,268,0.0,0.0,74,0.00,,---,0.00,VWS V14.01,2013-10-22 04:50:00,
2013-10-21 21:51:00,55.5,47.4,29.94,West,268,0.0,0.0,74,0.00,,---,0.00,VWS V14.01,2013-10-22 04:51:00,
2013-10-21 21:56:00,55.3,47.5,29.94,West,268,0.0,0.0,75,0.00,,---,0.00,VWS V14.01,2013-10-22 04:56:00,
2013-10-21 22:00:00,55.1,47.3,29.95,West,268,0.0,0.0,75,0.00,,---,0.00,VWS V14.01,2013-10-22 05:00:00,
2013-10-21 22:01:00,55.1,47.3,29.95,West,268,0.0,0.0,75,0.00,,---,0.00,VWS V14.01,2013-10-22 05:01:00,
2013-10-21 22:06:00,55.0,47.6,29.95,West,268,0.0,0.0,76,0.00,,---,0.00,VWS V14.01,2013-10-22 05:06:00,
2013-10-21 22:10:00,54.8,47.4,29.95,West,268,0.0,0.0,76,0.00,,---,0.00,VWS V14.01,2013-10-22 05:10:00,
2013-10-21 22:11:00,54.8,47.4,29.95,West,268,0.0,0.0,76,0.00,,---,0.00,VWS V14.01,2013-10-22 05:11:00,
2013-10-21 22:16:00,54.6,47.5,29.95,West,268,0.0,0.0,77,0.00,,---,0.00,VWS V14.01,2013-10-22 05:16:00,
2013-10-21 22:20:00,54.4,47.3,29.95,West,268,0.0,0.0,77,0.00,,---,0.00,VWS V14.01,2013-10-22 05:20:00,
2013-10-21 22:21:00,54.4,47.3,29.95,West,268,0.0,0.0,77,0.00,,---,0.00,VWS V14.01,2013-10-22 05:21:00,
2013-10-21 22:26:00,54.2,47.2,29.95,West,268,0.0,0.0,77,0.00,,---,0.00,VWS V14.01,2013-10-22 05:26:00,
2013-10-21 22:30:00,54.0,47.0,29.95,West,268,0.0,0.0,77,0.00,,---,0.00,VWS V14.01,2013-10-22 05:30:00,
2013-10-21 22:31:00,54.0,47.0,29.95,West,268,0.0,0.0,77,0.00,,---,0.00,VWS V14.01,2013-10-22 05:31:00,
2013-10-21 22:36:00,53.9,47.2,29.95,West,268,0.0,0.0,78,0.00,,---,0.00,VWS V14.01,2013-10-22 05:36:00,
2013-10-21 22:40:00,53.7,47.0,29.95,West,268,0.0,0.0,78,0.00,,---,0.00,VWS V14.01,2013-10-22 05:40:00,
2013-10-21 22:41:00,53.7,47.0,29.95,West,268,0.0,0.0,78,0.00,,---,0.00,VWS V14.01,2013-10-22 05:41:00,
2013-10-21 22:46:00,53.5,46.8,29.95,West,268,0.0,0.0,78,0.00,,---,0.00,VWS V14.01,2013-10-22 05:46:00,
2013-10-21 22:50:00,53.3,46.6,29.95,West,268,0.0,0.0,78,0.00,,---,0.00,VWS V14.01,2013-10-22 05:50:00,
2013-10-21 22:51:00,53.3,46.6,29.95,West,268,0.0,0.0,78,0.00,,---,0.00,VWS V14.01,2013-10-22 05:51:00,
2013-10-21 22:56:00,53.1,46.8,29.95,West,268,0.0,0.0,79,0.00,,---,0.00,VWS V14.01,2013-10-22 05:56:00,
2013-10-21 23:00:00,52.9,46.6,29.95,West,268,0.0,0.0,79,0.00,,---,0.00,VWS V14.01,2013-10-22 06:00:00,
2013-10-21 23:01:00,52.9,46.6,29.95,West,268,0.0,0.0,79,0.00,,---,0.00,VWS V14.01,2013-10-22 06:01:00,
2013-10-21 23:06:00,52.8,46.5,29.95,West,268,0.0,0.0,79,0.00,,---,0.00,VWS V14.01,2013-10-22 06:06:00,
2013-10-21 23:10:00,52.7,46.7,29.95,West,268,0.0,0.0,80,0.00,,---,0.00,VWS V14.01,2013-10-22 06:10:00,
2013-10-21 23:11:00,52.7,46.7,29.95,West,268,0.0,0.0,80,0.00,,---,0.00,VWS V14.01,2013-10-22 06:11:00,
2013-10-21 23:16:00,52.5,46.5,29.95,West,268,0.0,0.0,80,0.00,,---,0.00,VWS V14.01,2013-10-22 06:16:00,
2013-10-21 23:20:00,52.4,46.4,29.95,West,268,0.0,0.0,80,0.00,,---,0.00,VWS V14.01,2013-10-22 06:20:00,
2013-10-21 23:21:00,52.4,46.4,29.95,West,268,0.0,0.0,80,0.00,,---,0.00,VWS V14.01,2013-10-22 06:21:00,
2013-10-21 23:26:00,52.2,46.2,29.95,West,268,0.0,0.0,80,0.00,,---,0.00,VWS V14.01,2013-10-22 06:26:00,
2013-10-21 23:30:00,52.1,46.1,29.96,West,268,0.0,0.0,80,0.00,,---,0.00,VWS V14.01,2013-10-22 06:30:00,
2013-10-21 23:31:00,52.1,46.1,29.96,West,268,0.0,0.0,80,0.00,,---,0.00,VWS V14.01,2013-10-22 06:31:00,
2013-10-21 23:36:00,51.9,46.3,29.96,West,268,0.0,0.0,81,0.00,,---,0.00,VWS V14.01,2013-10-22 06:36:00,
2013-10-21 23:40:00,51.8,45.8,29.96,West,268,0.0,0.0,80,0.00,,---,0.00,VWS V14.01,2013-10-22 06:40:00,
2013-10-21 23:41:00,51.8,45.8,29.96,West,268,0.0,0.0,80,0.00,,---,0.00,VWS V14.01,2013-10-22 06:41:00,
2013-10-21 23:46:00,51.6,46.0,29.96,West,268,0.0,0.0,81,0.00,,---,0.00,VWS V14.01,2013-10-22 06:46:00,
2013-10-21 23:50:00,51.4,45.8,29.96,West,268,0.0,0.0,81,0.00,,---,0.00,VWS V14.01,2013-10-22 06:50:00,
2013-10-21 23:51:00,51.4,45.8,29.96,West,268,0.0,0.0,81,0.00,,---,0.00,VWS V14.01,2013-10-22 06:51:00,
2013-10-21 23:56:00,51.3,45.7,29.96,West,268,0.0,0.0,81,0.00,,---,0.00,VWS V14.01,2013-10-22 06:56:00,